Вернуться в каталог

COSMOS 970 DEB

АктивенLEO
NORAD 65008·DEBRIS·🇷🇺 Russia

Запущен Dec 21, 1977 с Baikonur Cosmodrome

Loading…

Ближайшие Пролёты (ближайшие 24 часа)

TLE

УстаревающийSource: Space-Track

Эпоха: Sep 12, 2026, 09:14 UTC

1 65008U 77121DV  26255.38503799  .00000522  00000-0  49547-3 0  9992
2 65008  65.8160 214.8933 0113140  33.5056  46.5078 13.86526485646676

Отслеживайте COSMOS 970 DEB в реальном времени с AllMySat

Download on the App Store